• In Portugal
  • List of Countries
  • For 7 days
  • Water Temperature
  • Satellite Maps
  • Weather Map
  • Weather Widgets
  • user-avatar
    Login

    Hourly Weather Gold Coast

    Today, 16 August, Thursday

    Time Temperature Precipitation Wind Pressure Humidity
    00:00 +13°C° 0 mm 4 mps 758 mmHg 48%
    01:00 +13°C° 0 mm 4 mps 758 mmHg 47%
    02:00 +12°C° 0 mm 4 mps 758 mmHg 46%
    03:00 +12°C° 0 mm 4 mps 757 mmHg 45%
    04:00 +12°C° 0 mm 4 mps 757 mmHg 45%
    05:00 +12°C° 0 mm 4 mps 757 mmHg 45%
    06:00 +12°C° 0 mm 4 mps 757 mmHg 46%
    07:00 +12°C° 0 mm 4 mps 757 mmHg 47%
    08:00 +17°C° 0 mm 4 mps 757 mmHg 40%
    09:00 +21°C° 0 mm 4 mps 757 mmHg 32%
    10:00 +25°C° 0 mm 3 mps 757 mmHg 23%
    11:00 +27°C° 0 mm 3 mps 756 mmHg 21%
    12:00 +28°C° 0 mm 4 mps 756 mmHg 18%
    13:00 +29°C° 0 mm 4 mps 755 mmHg 16%
    14:00 +29°C° 0 mm 4 mps 755 mmHg 19%
    15:00 +28°C° 0 mm 4 mps 755 mmHg 21%
    16:00 +28°C° 0 mm 4 mps 754 mmHg 23%
    17:00 +25°C° 0 mm 4 mps 755 mmHg 27%
    18:00 +21°C° 0 mm 4 mps 755 mmHg 30%
    19:00 +19°C° 0 mm 4 mps 755 mmHg 33%
    20:00 +18°C° 0 mm 3 mps 756 mmHg 34%
    21:00 +17°C° 0 mm 3 mps 756 mmHg 34%
    22:00 +16°C° 0 mm 3 mps 756 mmHg 35%
    23:00 +16°C° 0 mm 3 mps 756 mmHg 36%

    Tomorrow, 17 August, Friday

    Time Temperature Precipitation Wind Pressure Humidity
    00:00 +14°C° 0 mm 3 mps 756 mmHg 37%
    01:00 +13°C° 0 mm 3 mps 756 mmHg 38%
    02:00 +13°C° 0 mm 3 mps 756 mmHg 39%
    03:00 +13°C° 0 mm 3 mps 756 mmHg 39%
    04:00 +13°C° 0 mm 2 mps 756 mmHg 39%
    05:00 +13°C° 0 mm 2 mps 756 mmHg 41%
    06:00 +13°C° 0 mm 2 mps 757 mmHg 42%
    07:00 +13°C° 0 mm 2 mps 757 mmHg 43%
    08:00 +17°C° 0 mm 2 mps 757 mmHg 38%
    09:00 +20°C° 0 mm 2 mps 757 mmHg 34%
    10:00 +25°C° 0 mm 1 mps 758 mmHg 29%
    11:00 +26°C° 0 mm 2 mps 757 mmHg 28%
    12:00 +27°C° 0 mm 2 mps 756 mmHg 28%
    13:00 +28°C° 0 mm 2 mps 755 mmHg 27%
    14:00 +27°C° 0 mm 3 mps 755 mmHg 30%
    15:00 +27°C° 0 mm 3 mps 755 mmHg 33%
    16:00 +26°C° 0 mm 4 mps 754 mmHg 36%
    17:00 +24°C° 0 mm 3 mps 755 mmHg 41%
    18:00 +20°C° 0 mm 3 mps 755 mmHg 46%
    19:00 +18°C° 0 mm 2 mps 756 mmHg 51%
    20:00 +17°C° 0 mm 2 mps 756 mmHg 52%
    21:00 +16°C° 0 mm 2 mps 757 mmHg 54%
    22:00 +15°C° 0 mm 2 mps 757 mmHg 55%
    23:00 +15°C° 0 mm 2 mps 757 mmHg 55%

    Day after tomorrow, 18 August, Saturday

    Time Temperature Precipitation Wind Pressure Humidity
    00:00 +13°C° 0 mm 3 mps 757 mmHg 54%
    01:00 +13°C° 0 mm 3 mps 757 mmHg 54%
    02:00 +12°C° 0 mm 3 mps 757 mmHg 55%
    03:00 +12°C° 0 mm 3 mps 757 mmHg 55%
    04:00 +11°C° 0 mm 3 mps 757 mmHg 56%
    05:00 +11°C° 0 mm 3 mps 757 mmHg 56%
    06:00 +11°C° 0 mm 3 mps 758 mmHg 55%
    07:00 +11°C° 0 mm 3 mps 758 mmHg 55%
    08:00 +16°C° 0 mm 3 mps 759 mmHg 46%
    09:00 +19°C° 0 mm 3 mps 759 mmHg 37%
    10:00 +22°C° 0 mm 3 mps 759 mmHg 28%
    11:00 +24°C° 0 mm 3 mps 758 mmHg 25%
    12:00 +25°C° 0 mm 3 mps 757 mmHg 22%
    13:00 +27°C° 0 mm 3 mps 756 mmHg 19%
    14:00 +26°C° 0 mm 3 mps 756 mmHg 21%
    15:00 +26°C° 0 mm 3 mps 756 mmHg 22%
    16:00 +26°C° 0 mm 3 mps 755 mmHg 24%
    17:00 +22°C° 0 mm 3 mps 756 mmHg 28%
    18:00 +20°C° 0 mm 3 mps 756 mmHg 33%
    19:00 +17°C° 0 mm 3 mps 757 mmHg 37%
    20:00 +16°C° 0 mm 3 mps 757 mmHg 39%
    21:00 +14°C° 0 mm 3 mps 758 mmHg 40%
    22:00 +14°C° 0 mm 3 mps 758 mmHg 42%
    23:00 +13°C° 0 mm 4 mps 758 mmHg 43%

    19 August, Sunday

    Time Temperature Precipitation Wind Pressure Humidity
    00:00 +13°C° 0 mm 4 mps 758 mmHg 44%
    01:00 +12°C° 0 mm 4 mps 758 mmHg 45%
    02:00 +12°C° 0 mm 4 mps 757 mmHg 46%
    03:00 +12°C° 0 mm 5 mps 757 mmHg 48%
    04:00 +10°C° 0 mm 5 mps 757 mmHg 49%
    05:00 +10°C° 0 mm 5 mps 758 mmHg 52%
    06:00 +10°C° 0 mm 5 mps 758 mmHg 54%
    07:00 +10°C° 0 mm 5 mps 759 mmHg 56%
    08:00 +13°C° 0 mm 5 mps 759 mmHg 46%
    09:00 +15°C° 0 mm 5 mps 759 mmHg 36%
    10:00 +17°C° 0 mm 5 mps 759 mmHg 26%
    11:00 +19°C° 0 mm 5 mps 758 mmHg 24%
    12:00 +20°C° 0 mm 5 mps 758 mmHg 22%
    13:00 +21°C° 0 mm 5 mps 757 mmHg 19%
    14:00 +20°C° 0 mm 5 mps 756 mmHg 19%
    15:00 +20°C° 0 mm 5 mps 756 mmHg 20%
    16:00 +20°C° 0 mm 6 mps 756 mmHg 20%
    17:00 +17°C° 0 mm 6 mps 756 mmHg 22%
    18:00 +15°C° 0 mm 7 mps 757 mmHg 25%
    19:00 +12°C° 0 mm 7 mps 758 mmHg 27%
    20:00 +11°C° 0 mm 7 mps 758 mmHg 30%
    21:00 +10°C° 0 mm 7 mps 758 mmHg 33%
    22:00 +9°C° 0 mm 7 mps 759 mmHg 35%
    23:00 +9°C° 0 mm 7 mps 759 mmHg 38%

    20 August, Monday

    Time Temperature Precipitation Wind Pressure Humidity
    00:00 +8°C° 0 mm 7 mps 759 mmHg 40%
    01:00 +6°C° 0 mm 7 mps 758 mmHg 42%
    02:00 +6°C° 0 mm 7 mps 758 mmHg 43%
    03:00 +6°C° 0 mm 7 mps 758 mmHg 45%
    04:00 +6°C° 0 mm 7 mps 758 mmHg 46%
    05:00 +7°C° 0 mm 6 mps 759 mmHg 46%
    06:00 +7°C° 0 mm 6 mps 759 mmHg 47%
    07:00 +7°C° 0 mm 6 mps 760 mmHg 48%
    08:00 +9°C° 0 mm 6 mps 760 mmHg 42%
    09:00 +13°C° 0 mm 6 mps 760 mmHg 35%
    10:00 +15°C° 0 mm 6 mps 760 mmHg 29%
    11:00 +16°C° 0 mm 5 mps 759 mmHg 25%
    12:00 +17°C° 0 mm 5 mps 759 mmHg 21%
    13:00 +20°C° 0 mm 5 mps 758 mmHg 18%
    14:00 +20°C° 0 mm 4 mps 758 mmHg 18%
    15:00 +20°C° 0 mm 4 mps 758 mmHg 18%
    16:00 +20°C° 0 mm 4 mps 758 mmHg 18%
    17:00 +17°C° 0 mm 4 mps 758 mmHg 24%
    18:00 +14°C° 0 mm 4 mps 759 mmHg 29%
    19:00 +11°C° 0 mm 3 mps 760 mmHg 35%
    20:00 +10°C° 0 mm 3 mps 760 mmHg 37%
    21:00 +10°C° 0 mm 3 mps 760 mmHg 39%
    22:00 +9°C° 0 mm 3 mps 761 mmHg 42%
    23:00 +8°C° 0 mm 3 mps 761 mmHg 42%

    21 August, Tuesday

    Time Temperature Precipitation Wind Pressure Humidity
    00:00 +8°C° 0 mm 3 mps 760 mmHg 42%
    01:00 +7°C° 0 mm 4 mps 760 mmHg 42%
    02:00 +6°C° 0 mm 4 mps 760 mmHg 42%
    03:00 +6°C° 0 mm 4 mps 760 mmHg 42%
    04:00 +5°C° 0 mm 4 mps 760 mmHg 42%
    05:00 +7°C° 0 mm 3 mps 760 mmHg 42%
    06:00 +7°C° 0 mm 3 mps 760 mmHg 43%
    07:00 +7°C° 0 mm 3 mps 760 mmHg 44%
    08:00 +10°C° 0 mm 3 mps 760 mmHg 36%
    09:00 +15°C° 0 mm 2 mps 760 mmHg 29%
    10:00 +18°C° 0 mm 2 mps 760 mmHg 22%
    11:00 +19°C° 0 mm 2 mps 759 mmHg 19%
    12:00 +21°C° 0 mm 3 mps 758 mmHg 16%
    13:00 +22°C° 0 mm 3 mps 757 mmHg 13%
    14:00 +22°C° 0 mm 3 mps 757 mmHg 15%
    15:00 +21°C° 0 mm 3 mps 757 mmHg 16%
    16:00 +21°C° 0 mm 4 mps 757 mmHg 17%
    17:00 +18°C° 0 mm 3 mps 758 mmHg 23%
    18:00 +16°C° 0 mm 3 mps 758 mmHg 29%
    19:00 +12°C° 0 mm 3 mps 759 mmHg 35%
    20:00 +11°C° 0 mm 3 mps 759 mmHg 40%
    21:00 +10°C° 0 mm 3 mps 760 mmHg 45%
    22:00 +8°C° 0 mm 4 mps 760 mmHg 50%
    23:00 +8°C° 0 mm 4 mps 760 mmHg 53%
    Show more